Theta_e
326 328 328 325 328 327 330 330 325 329 329 328 329 327 330 336 337 335 336 338 339 337 336 335 335 330 326 327 333 334 334 333 332 331 331 329 327 327 328 329 328 330 331 332 332 332 325 322 321
326 326 326 321 329 331 331 327 330 328 327 327 325 328 332 338 336 336 336 338 338 337 337 335 334 332 328 327 332 335 335 335 333 333 331 330 328 327 327 326 329 329 330 330 331 331 326 323 321
327 327 325 325 326 331 331 327 327 327 327 324 330 329 331 339 335 337 337 339 337 337 337 335 336 332 330 328 327 334 336 334 330 330 331 330 328 327 327 327 328 328 329 329 328 332 326 325 323
325 322 320 328 332 328 327 325 325 326 325 327 328 331 331 335 336 337 339 338 337 338 338 336 335 333 331 327 328 327 330 330 328 329 331 329 328 326 325 326 328 327 327 326 323 331 330 327 325
324 320 326 328 330 327 325 323 323 326 327 330 329 334 334 335 335 337 339 338 337 337 337 337 335 334 334 327 328 330 335 332 330 332 332 329 329 324 324 324 324 325 324 325 322 324 329 329 326
325 320 328 330 330 328 325 323 325 327 329 330 330 332 333 335 337 339 339 338 337 336 337 336 335 335 334 327 326 329 332 331 326 331 332 330 329 327 325 323 322 322 322 323 321 316 320 322 324
325 325 328 327 330 330 327 322 326 326 327 329 328 332 332 334 338 340 339 337 336 336 336 336 336 336 334 328 326 326 328 329 327 329 332 330 328 328 326 325 324 325 324 322 321 316 315 318 317
320 322 328 328 330 332 325 325 323 326 330 325 328 330 333 333 337 340 339 338 337 337 336 336 335 336 335 330 326 323 323 324 326 326 331 330 327 328 329 326 324 325 325 324 323 321 319 315 315
319 325 328 328 329 330 324 327 324 325 327 330 330 327 329 336 337 339 339 338 337 337 337 336 336 335 335 333 329 326 324 323 324 325 326 328 327 327 329 329 327 325 325 325 324 323 322 321 321
320 325 327 323 324 327 324 326 325 329 330 332 334 331 331 335 335 337 337 337 337 337 336 336 335 334 333 333 332 330 327 325 324 323 324 326 327 327 326 327 329 328 326 326 325 324 323 323 322
320 325 323 322 321 322 323 325 322 327 329 329 332 332 330 332 333 334 336 337 337 337 336 336 335 334 334 333 332 331 331 330 328 326 324 324 324 325 325 325 325 327 328 327 326 324 324 324 323
324 321 322 322 320 322 323 321 323 325 326 322 326 330 331 330 331 333 334 336 336 336 335 335 335 335 334 333 332 332 332 331 331 330 329 328 327 325 323 322 322 324 325 327 327 326 325 325 324
323 322 321 320 319 320 320 321 322 322 319 322 328 331 330 330 332 333 334 335 336 336 335 335 335 335 333 333 333 332 332 332 332 332 331 331 330 329 326 325 324 323 324 324 325 326 327 326 324
321 322 321 320 321 321 322 322 322 321 321 324 330 330 329 329 331 332 333 334 335 335 334 334 334 334 334 332 332 332 332 331 332 332 332 332 331 331 330 329 328 327 327 327 325 325 325 325 324
322 324 321 321 321 322 321 323 321 320 320 324 327 327 327 328 331 332 333 333 332 332 332 333 333 334 334 333 333 332 332 332 332 331 331 331 331 331 331 331 330 330 329 328 327 327 326 325 325
323 320 324 321 321 321 321 322 318 317 319 321 320 319 321 322 327 331 331 332 332 332 332 332 332 332 333 333 333 333 333 333 333 333 333 333 333 332 332 331 331 330 329 329 329 328 327 326 325
319 323 324 323 319 321 321 322 319 316 317 318 316 315 315 314 314 319 324 328 328 328 329 330 328 328 331 331 331 331 332 332 333 333 333 333 333 333 333 332 332 331 328 329 329 328 327 327 326
325 323 322 322 319 320 322 322 320 317 315 315 314 313 312 312 313 317 319 320 319 319 321 323 323 324 325 326 325 324 323 324 325 325 324 325 326 329 332 333 333 332 329 329 329 330 330 328 328
320 322 320 320 318 319 318 319 319 316 316 316 315 314 312 311 313 315 316 317 317 317 318 318 319 319 318 318 318 317 317 317 316 315 315 316 318 322 329 332 332 332 331 330 329 329 330 330 329
322 322 322 319 318 318 318 317 316 315 314 314 315 314 314 313 312 313 314 314 315 316 315 315 315 316 315 315 315 315 315 315 315 317 317 319 323 324 329 331 332 331 330 331 331 330 330 329 328
324 322 320 320 319 316 315 315 315 314 313 313 313 314 314 315 315 313 311 313 313 313 314 314 314 314 314 313 313 314 315 316 318 319 319 320 325 328 330 331 331 331 330 330 330 327 328 327 328
324 319 319 321 322 321 313 315 311 310 309 313 313 313 314 313 312 311 310 311 312 313 312 312 312 311 312 312 312 314 316 318 320 320 320 320 322 323 325 328 330 330 331 330 327 327 327 327 327
319 319 320 320 321 319 318 318 312 311 310 309 309 310 310 309 310 309 309 312 313 311 310 310 309 309 309 310 312 314 316 318 318 317 316 318 321 322 323 325 327 327 328 326 326 326 326 326 327
317 317 316 315 316 316 315 315 309 309 310 309 309 308 308 306 305 304 307 308 309 309 308 307 306 307 307 309 311 313 316 317 316 316 317 317 318 319 320 320 320 321 323 323 323 323 323 324 324
316 317 318 318 314 315 311 314 310 308 309 309 309 309 307 305 305 305 304 303 304 305 305 305 304 304 305 307 309 311 313 315 317 317 317 316 315 315 315 315 316 316 317 318 318 318 319 319 319
318 317 317 317 320 314 311 316 314 310 308 306 306 305 304 305 305 304 303 302 303 303 303 302 302 303 303 304 306 307 308 310 313 313 314 313 312 313 310 309 310 310 310 311 311 312 313 313 313
318 321 314 313 300 309 311 309 307 307 307 307 306 306 306 305 305 304 302 302 302 302 302 302 301 301 301 301 302 303 304 305 307 309 309 309 308 307 306 304 303 303 303 303 305 306 307 307 306
317 315 319 312 313 310 311 310 311 309 306 306 306 305 305 305 304 303 301 302 302 302 302 301 300 300 300 299 299 300 301 302 303 303 303 302 301 300 299 298 298 298 298 298 298 299 299 299 298
316 318 318 317 315 314 310 309 304 307 307 305 304 305 304 303 303 303 301 302 303 302 302 301 300 299 299 298 297 296 297 298 298 298 298 298 297 296 296 295 294 294 294 294 294 294 294 294 293
314 315 318 320 314 310 311 317 305 304 304 303 307 305 303 303 302 302 302 302 301 302 301 301 300 299 299 298 296 296 295 294 294 294 295 295 295 294 293 293 292 291 291 291 292 292 291 291 290
Wind_Speed
16 2 11 2 4 5 1 2 2 2 2 3 3 3 6 3 2 3 3 10 14 22 19 15 12 10 11 11 12 13 13 10 9 8 7 6 6 5 5 4 3 7 7 7 6 7 7 7 8
8 8 3 2 4 4 3 2 3 2 6 6 5 3 5 2 1 3 9 8 19 22 19 14 13 10 10 11 11 14 13 11 9 7 5 4 5 4 5 5 6 6 6 6 5 4 5 6 6
3 4 3 4 4 4 5 3 5 2 6 0 4 4 3 1 2 10 3 14 22 22 20 17 14 10 9 11 12 13 14 12 8 7 7 7 6 7 6 5 8 5 4 4 4 6 3 5 4
2 4 4 4 3 2 6 6 5 6 2 4 4 5 1 1 5 3 13 18 20 21 19 17 14 10 8 10 12 14 13 10 8 8 8 8 7 6 6 7 7 5 4 2 3 6 4 2 0
4 3 4 4 1 3 2 6 7 6 4 2 1 3 1 2 4 7 18 18 18 19 18 16 12 10 7 8 11 11 13 10 8 9 8 8 8 5 5 6 6 6 5 3 3 5 6 5 3
4 3 4 3 3 2 3 5 6 3 3 4 5 4 0 1 9 17 16 15 14 16 16 15 12 9 6 7 9 10 12 10 8 9 9 7 8 6 5 5 4 4 5 6 6 4 7 7 6
5 4 4 5 4 2 5 6 7 6 6 3 7 5 1 3 11 19 15 14 13 14 13 13 12 10 7 7 7 10 11 11 9 8 11 10 9 9 7 7 5 5 5 5 6 5 5 7 7
4 4 4 2 5 3 5 4 6 5 2 2 2 5 4 7 16 18 15 13 13 14 14 14 13 12 10 9 8 9 10 11 12 11 12 12 10 11 11 10 10 9 8 7 7 7 7 7 8
1 4 3 6 7 4 5 4 1 2 6 2 1 4 1 22 20 20 17 14 15 16 16 15 14 13 12 11 10 10 10 10 11 13 13 13 13 13 14 14 13 12 12 11 11 11 10 10 11
4 3 6 4 4 5 5 3 8 4 4 1 1 2 12 23 24 23 19 19 19 19 19 17 15 14 13 12 11 12 12 13 12 13 15 15 15 15 15 16 16 16 15 14 14 14 13 13 14
2 3 1 1 1 5 6 3 2 8 3 6 9 7 9 13 21 22 23 24 26 22 20 19 17 15 15 14 13 13 13 13 14 15 15 16 17 17 18 18 18 18 17 17 16 16 16 16 16
2 2 1 1 3 3 7 5 2 3 4 3 8 11 12 9 14 20 23 28 27 24 22 19 18 18 18 17 17 16 16 15 16 16 16 17 18 19 19 20 19 19 18 18 18 18 17 18 18
3 4 4 2 5 4 5 3 2 5 3 4 9 7 10 9 14 20 22 20 22 23 22 21 19 19 19 21 20 20 20 20 19 19 19 19 20 20 19 20 21 21 19 20 20 20 19 19 18
1 2 3 4 2 2 3 1 2 1 2 5 8 10 8 8 19 14 19 22 23 24 23 21 21 20 19 21 22 22 21 21 21 21 21 22 23 22 21 21 21 21 20 20 20 20 19 19 19
1 2 3 2 1 1 4 3 7 2 2 5 7 7 7 12 13 22 25 24 25 25 24 23 23 22 23 22 21 22 22 23 23 23 23 23 24 25 25 24 23 22 21 21 21 20 20 20 18
3 4 3 2 2 1 4 7 10 5 4 7 7 7 8 10 18 25 23 24 26 26 26 23 23 24 23 23 23 23 24 26 27 27 27 27 27 27 28 28 27 23 22 21 22 21 20 21 20
6 3 3 5 8 3 4 7 7 5 6 9 8 8 9 8 13 23 24 29 29 29 26 25 23 22 22 22 22 23 25 27 29 29 30 30 30 29 29 29 28 25 24 24 24 24 23 23 22
5 4 5 6 2 3 4 8 9 3 5 9 8 9 8 8 15 27 27 30 27 24 22 23 23 23 21 21 20 20 21 23 23 24 26 28 28 29 30 29 27 25 25 24 24 26 26 26 24
2 1 4 2 2 1 6 7 14 6 4 9 10 9 9 12 16 23 21 24 24 22 21 22 21 19 17 16 17 18 21 22 22 22 22 23 25 26 26 27 28 25 27 27 24 23 23 26 26
1 2 3 4 2 1 5 8 11 8 7 8 9 10 11 7 10 15 14 17 20 21 19 18 18 17 15 15 15 14 15 17 18 18 16 17 18 21 22 23 24 24 23 23 21 21 21 22 19
1 4 3 4 5 1 5 9 7 8 4 7 8 13 10 14 15 11 15 22 17 19 19 18 17 15 14 14 14 15 15 16 16 15 15 12 10 11 16 18 20 21 21 23 21 20 21 19 16
5 6 5 2 2 5 2 8 4 3 8 5 9 13 16 13 10 5 7 14 23 23 18 17 15 13 12 12 11 11 11 11 10 9 10 10 10 11 11 12 15 19 20 19 19 20 20 18 15
4 5 6 5 3 3 1 4 4 2 5 10 12 14 12 8 8 9 11 21 24 23 19 16 14 12 10 9 9 9 10 9 8 7 8 10 10 10 10 12 13 15 16 17 18 17 17 18 17
5 5 5 4 3 4 7 6 5 5 6 5 6 6 8 9 8 8 12 13 17 19 18 16 13 11 10 9 8 8 8 7 8 8 8 9 9 9 10 11 12 13 13 12 12 15 14 14 17
2 6 1 2 1 6 3 6 13 8 9 6 9 9 7 7 6 7 5 5 12 16 16 14 12 11 10 8 7 7 8 9 9 11 11 11 10 10 10 10 11 11 11 11 11 11 10 10 11
6 6 4 7 4 4 1 7 6 5 9 9 7 8 7 8 5 6 5 7 12 13 13 12 12 12 10 9 9 9 9 10 11 12 12 13 13 14 12 11 11 11 11 12 12 12 11 11 11
4 10 5 4 2 2 4 6 8 6 10 9 9 7 8 8 7 4 4 7 10 11 12 13 13 13 12 12 12 11 12 12 13 13 14 15 15 14 13 12 11 10 10 10 11 11 11 11 11
6 6 3 1 2 4 5 5 6 7 9 6 9 8 8 7 6 4 5 9 11 13 14 15 15 15 14 14 14 13 13 13 14 14 15 15 14 13 12 11 10 10 9 10 10 11 11 12 12
3 3 3 4 5 4 2 5 7 7 6 7 6 6 7 8 7 5 6 10 13 14 17 18 18 18 19 18 16 15 14 14 14 14 15 15 15 14 13 12 11 11 11 11 12 12 13 14 14
6 5 9 5 3 2 2 15 4 8 5 5 2 7 6 4 6 5 6 10 15 19 21 22 22 23 24 21 20 18 17 17 17 17 17 17 17 17 16 15 14 14 14 14 15 16 16 16 16
Wind_Direction
345 74 145 80 68 70 93 215 302 124 69 340 82 132 147 56 133 193 161 162 164 162 161 162 157 153 152 157 159 163 165 153 142 137 132 127 132 146 148 138 118 99 103 100 108 97 91 81 66
356 132 97 80 90 88 264 247 179 211 157 152 87 81 49 80 91 121 134 167 166 160 156 170 166 160 163 163 162 167 165 162 154 153 150 144 134 140 139 155 131 117 112 100 91 127 110 95 77
93 152 91 96 110 147 173 183 158 128 144 172 97 63 118 36 25 159 226 167 166 165 165 176 170 165 170 173 173 164 170 168 171 164 159 153 150 137 136 137 144 142 130 102 102 134 128 96 81
132 29 37 83 129 196 164 161 160 136 249 68 124 70 40 344 164 172 160 169 171 172 173 176 175 175 177 181 179 179 183 189 182 174 170 169 169 163 172 161 159 164 150 147 152 132 172 171 233
60 57 67 77 107 144 150 158 161 149 139 104 133 157 66 37 185 174 162 169 176 178 179 183 185 187 195 195 191 189 192 194 198 191 191 186 188 185 182 185 195 208 213 191 225 190 194 220 233
49 95 72 142 147 83 91 168 149 112 142 154 90 110 24 109 153 157 166 170 179 183 186 190 194 202 215 208 204 202 205 214 211 207 213 217 211 216 207 204 206 227 242 237 260 262 235 237 245
103 81 154 135 138 117 173 169 150 140 133 190 154 102 226 186 160 160 170 172 178 186 195 198 207 215 223 221 217 216 220 225 224 228 223 233 232 233 237 241 245 249 252 252 259 269 266 256 264
98 95 110 194 171 188 166 160 147 122 152 98 144 166 188 197 169 170 176 186 193 197 207 209 216 224 230 226 223 222 224 230 228 230 227 241 245 242 247 250 253 260 263 266 278 279 284 286 289
97 66 147 179 160 174 171 135 193 74 111 102 7 157 167 156 165 170 180 195 204 209 213 217 225 232 234 235 233 230 230 234 235 233 234 240 243 246 249 251 253 257 264 269 274 282 285 286 286
72 90 184 178 188 163 157 144 157 129 126 22 62 30 146 158 167 173 188 199 208 213 216 218 224 227 231 234 235 236 236 238 240 241 241 245 249 253 256 256 256 259 262 266 269 273 279 281 283
357 117 186 85 165 141 137 119 112 125 224 206 190 174 164 166 177 185 196 204 209 215 219 221 226 229 233 236 236 237 237 241 244 246 248 252 255 257 258 258 257 257 259 263 265 268 272 277 283
67 78 46 44 15 108 141 137 97 192 215 274 199 162 164 176 192 198 204 208 211 214 219 222 228 232 236 240 240 243 244 244 248 251 253 254 259 259 261 260 259 258 261 262 264 268 273 278 281
39 4 46 54 68 85 106 86 159 248 324 60 133 153 182 189 209 213 218 225 226 229 226 223 224 231 237 240 244 245 246 249 253 255 255 256 259 262 264 264 263 262 262 261 263 268 272 276 282
175 27 5 359 24 76 104 101 77 277 108 108 160 190 201 207 215 221 225 229 233 239 242 238 235 233 234 237 242 246 250 254 256 257 258 257 259 263 265 266 266 265 263 266 266 269 270 272 277
137 115 26 334 323 132 130 320 239 177 140 160 198 213 224 230 228 228 230 233 236 241 248 249 248 244 239 237 242 247 252 254 256 259 262 262 261 263 263 263 263 267 268 266 266 267 267 267 271
91 49 100 275 149 338 116 253 261 213 166 220 217 229 240 249 236 239 243 246 248 250 250 255 258 251 245 243 246 251 255 257 260 261 263 264 263 264 264 263 263 266 268 267 262 263 266 268 269
7 154 170 302 209 122 149 240 280 206 198 237 237 239 241 260 265 252 250 251 253 254 252 248 246 246 242 244 248 253 257 260 262 263 265 266 264 262 260 260 264 265 264 262 261 257 254 258 262
179 181 221 206 193 184 158 248 258 232 176 241 258 262 269 260 255 260 253 251 254 255 245 237 238 239 240 244 250 256 259 261 265 267 269 271 269 265 260 257 259 261 260 259 260 257 258 257 264
149 104 190 278 283 206 223 234 260 256 220 253 249 253 245 249 261 265 266 255 249 240 231 225 222 223 230 236 244 253 257 264 267 271 274 271 266 263 259 255 256 258 259 258 256 262 262 261 257
173 163 231 290 297 184 283 255 256 263 226 221 245 249 247 246 254 257 248 237 232 227 217 215 217 220 228 237 248 256 264 271 276 275 272 270 263 256 252 250 252 256 261 259 257 259 254 258 258
182 198 174 230 328 288 319 271 231 259 215 237 245 249 250 240 248 248 222 232 224 224 217 215 218 222 231 244 256 265 275 280 282 284 266 266 263 249 244 246 249 251 253 256 263 263 259 242 254
228 184 165 163 51 251 35 290 265 286 276 226 258 251 251 250 249 258 233 224 229 229 221 220 219 224 232 246 257 261 266 273 277 264 262 255 251 246 243 242 245 251 247 251 255 261 261 256 242
222 155 173 168 196 343 219 295 271 5 293 270 241 252 263 261 250 249 238 241 238 226 216 214 217 223 231 240 252 261 265 264 260 262 249 241 239 236 238 240 243 244 243 252 259 257 262 260 244
161 99 59 49 97 271 190 187 209 189 207 268 263 259 274 296 292 282 281 252 226 208 204 208 215 222 231 237 247 255 255 241 237 242 244 236 231 230 234 236 239 242 241 235 242 255 241 236 236
144 124 59 6 332 237 325 194 263 304 277 227 277 297 312 289 292 296 264 221 198 195 197 206 217 229 236 241 244 246 243 233 235 235 229 232 237 241 238 236 233 232 230 231 229 232 231 227 216
189 163 161 199 206 266 38 234 260 231 282 281 271 291 308 317 302 294 262 221 204 203 207 213 224 235 243 249 249 247 243 235 227 226 230 233 240 246 241 236 237 237 236 236 233 228 223 216 205
181 219 160 96 30 52 231 286 288 295 277 299 300 337 326 321 320 281 221 220 213 217 221 228 235 243 246 247 247 246 242 238 237 236 236 235 236 237 240 239 238 236 232 226 219 213 205 198 194
168 158 127 73 245 265 260 259 235 294 291 319 311 332 312 311 316 276 233 219 221 228 234 237 242 248 251 249 248 247 247 245 242 240 238 236 236 237 235 233 230 225 217 208 200 192 181 182 173
153 203 215 165 170 196 276 254 214 229 245 271 297 303 296 315 322 289 254 244 238 241 240 242 243 245 246 246 245 245 246 243 238 235 232 231 231 230 228 225 220 214 208 199 193 185 180 180 173
234 228 204 194 247 246 232 262 187 210 225 191 221 298 294 296 323 316 278 261 247 243 246 249 249 248 247 246 244 244 243 241 237 233 230 227 225 222 220 218 214 209 204 199 195 189 184 182 173